AirNav   Air Wisconsin Up To $57,000 Bonus
 
 1583 users online  

9VG Campbell Field Airport
Weirwood, Virginia, USA

GOING TO WEIRWOOD?


FAA INFORMATION EFFECTIVE 10 OCTOBER 2019

Location

FAA Identifier: 9VG
Lat/Long: 37-27-30.4900N 075-52-43.7500W
37-27.508167N 075-52.729167W
37.4584694,-75.8788194
(estimated)
Elevation: 40 ft. / 12 m (estimated)
Variation: 08W (1970)
From city: 1 mile W of WEIRWOOD, VA
Time zone: UTC -4 (UTC -5 during Standard Time)
Zip code: 23413

Airport Operations

Airport use: Open to the public
Activation date: 11/1937
Control tower: no
ARTCC: WASHINGTON CENTER
FSS: LEESBURG FLIGHT SERVICE STATION
NOTAMs facility: DCA (NOTAM-D service available)
Attendance: MAR-NOV DAYLIGHT HOURS, DEC-FEB IREG
Wind indicator: yes
Segmented circle: no

Airport Communications

CTAF: 122.9
WX AWOS-3 at MFV (13 nm NE): 118.175 (757-787-5660)

Nearby radio navigation aids

VOR radial/distance  VOR name  Freq  Var
CCVr050/8.7CAPE CHARLES VORTAC112.2010W
ORFr031/37.3NORFOLK VORTAC116.9007W
HCMr096/39.7HARCUM VORTAC108.8007W

Airport Services

Parking: tiedowns

Runway Information

Runway 3/21

Dimensions: 3000 x 100 ft. / 914 x 30 m
Surface: turf, in good condition
RUNWAY 3  RUNWAY 21
Traffic pattern: leftleft
Obstructions: 60 ft. pline, marked, 300 ft. from runway, 5:1 slope to clear15 ft. road, 25 ft. from runway, 1:1 slope to clear

Runway 14/32

Dimensions: 1455 x 140 ft. / 443 x 43 m
Surface: turf, in good condition
RUNWAY 14  RUNWAY 32
Traffic pattern: leftleft
Obstructions: 15 ft. road, 20 ft. from runway, 1:1 slope to clear53 ft. trees, 555 ft. from runway, 19 ft. left of centerline, 10:1 slope to clear

Airport Ownership and Management from official FAA records

Ownership: Privately-owned
Owner: CAMPBELL FIELD INC.
9114 BAYFORD RD
FRANKTOWN, VA 23544-0084
Phone 914-772-6242
Manager: GORDON CAMPBELL
9114 BAYFORD RD
FRANKTOWN, VA 23544-0084
Phone 914-772-6242
AIRPORT OFFICE CALL 757-442-7519.

Airport Operational Statistics

Aircraft based on the field: 7
Single engine airplanes: 3
Ultralights: 4
    
Aircraft operations: avg 22/week *
87% local general aviation
12% transient general aviation
<1% military
* for 12-month period ending 04 March 1997

Additional Remarks

BE ALERT: 60 FT PLINES LCTD 300 FT SW OFF THE AER 03.
FOR CD CTC NORFOLK APCH AT 757-464-0757.

Instrument Procedures

There are no published instrument procedures at 9VG.

Some nearby airports with instrument procedures:

KMFV - Accomack County Airport (13 nm NE)
KTGI - Tangier Island Airport (23 nm N)
W75 - Hummel Field Airport (28 nm W)
KLFI - Langley Air Force Base (32 nm SW)
W41 - Crisfield-Somerset County Airport (34 nm N)
 
Loc | Ops | Rwys | IFR | FBO | Links
Com | Nav | Svcs | Stats | Notes
Area around 9VG (Campbell Field Airport)
 
Road maps at: MapQuest Bing Google
 
Aerial photo
WARNING: Photo may not be current or correct
Aerial photo of 9VG (Campbell Field Airport)
Photo by Gordon Campbell / At Altitude Gallery
Photo taken 09-Jul-2017
looking south.

Do you have a better or more recent aerial photo of Campbell Field Airport that you would like to share? If so, please send us your photo.

 
Sectional chart

 
Airport distance calculator
Flying to Campbell Field Airport? Find the distance to fly.

From to 9VG

Sunrise and sunset
Times for 23-Oct-2019
 Local
(UTC-4)
 Zulu
(UTC)
Morning civil twilight06:5410:54
Sunrise07:2011:20
Sunset18:1522:15
Evening civil twilight18:4222:42

Current date and time
Zulu (UTC)  23-Oct-2019 14:11:57
Local (UTC-4)  23-Oct-2019 10:11:57
 
METAR
KMFV 
12nm NE 
231355Z AUTO 34007G16KT 10SM CLR 18/10 A3006 RMK AO2 T01830099
TAF
KLFI 
33nm SW 
231100Z 2311/2415 30007KT 9999 FEW080 QNH2990INS TEMPO 2311/2312 BKN005 BECMG 2315/2316 33009KT 9999 SKC QNH3000INS TX21/2320Z TN14/2311Z
KPHF 
35nm SW 
231120Z 2312/2412 30006KT P6SM SCT005 FM231300 31008KT P6SM FEW200 FM232300 00000KT P6SM SKC
KORF 
37nm SW 
231120Z 2312/2412 31005KT P6SM FEW150 FM231500 34008KT P6SM SKC FM240000 00000KT P6SM SKC
KNGU 
37nm SW 
2307/2407 30009KT 9999 FEW080 QNH2984INS FM232200 VRB05KT 9999 SKC QNH3013INS T15/2310Z T20/2319Z FN00194
KNTU 
39nm S 
2307/2407 33009KT 9999 FEW080 QNH2984INS FM232200 VRB05KT 9999 SKC QNH3013INS T13/2310Z T20/2319Z FN00194
KFAF 
41nm SW 
231102Z 2311/2416 33009KT 9999 SCT008 QNH2995INS TEMPO 2311/2312 BKN008 BECMG 2312/2313 33006KT 9999 FEW080 QNH2996INS BECMG 2315/2316 34006KT 9999 SKC QNH3001INS TX21/2319Z TN14/2311Z
NOTAMs
Click for the latest NOTAMs
NOTAMs are issued by the DoD/FAA and will open in a separate window not controlled by AirNav.

 

 
 

FBO, Fuel Providers, and Aircraft Ground Support

  
 Business Name 
 
 Contact 
 
 Services / Description 
 
Fuel Prices
 
Comments
  
Eastern Shore Flying Service 757-442-7519
no information available

If you are affiliated with Eastern Shore Flying Service and would like to show here your services, contact info, web link, logo, and more, click here
no fuel
 
   write
Update Fuel Prices
 

Would you like to see your business listed on this page?

 If your business provides an interesting product or service to pilots, flight crews, aircraft, or users of the Campbell Field Airport, you should consider listing it here.  To start the listing process, click on the button below
 
Add a business
 

Other Pages about Campbell Field Airport

www.campbellfieldairport.com
www.flyvirginia.com/...
 
Update a link
 
Copyright © AirNav, LLC. All rights reserved. Privacy Policy  Contact